Location: Pompeys Pillar
(45.9913°N, 107.9528°W)
Time: 05:46:41
(UTC+00:00)

Tiros 1 - Pass Details

Date: 04 June 2022
Orbit: 629 x 663 km, 48.4° (Epoch: 30 June)

Event Time Altitude Azimuth Distance (km) Brightness Sun altitude
Rises 09:27:27 0° 289° (WNW) 2,921 10.4 -14.8°
Reaches altitude 10° 09:29:47 10° 286° (WNW) 2,014 9.5 -14.6°
Maximum altitude 09:34:22 64° 206° (SSW) 702 7.0 -14.1°
Drops below altitude 10° 09:38:59 10° 125° (SE) 2,024 9.7 -13.7°
Sets 09:41:19 0° 122° (ESE) 2,937 10.6 -13.5°
